When you browse on this site, cookies collect data to enhance your experience and personalize the content and advertising you see.
Visit our Privacy Policy to learn more. By continuing to use the site, you agree to this use of cookies and data.
  • In Hungary
  • List of Countries
  • For 7 days
  • Water Temperature
  • Weather Map
  • News
  • Weather Widgets
  • user-avatar
    Login

    Hourly Weather Chicago

    Today, 20 November, Wednesday

    Time Temperature Precipitation Wind Pressure Humidity
    00:00 +4°C° 0 mm 1 mps 746 mmHg 97%
    01:00 +3°C° 0 mm 1 mps 746 mmHg 97%
    02:00 +2°C° 0 mm 2 mps 747 mmHg 97%
    03:00 +2°C° 0 mm 2 mps 748 mmHg 97%
    04:00 +2°C° 0 mm 2 mps 748 mmHg 96%
    05:00 +3°C° 0 mm 1 mps 748 mmHg 96%
    06:00 +3°C° 0 mm 1 mps 749 mmHg 95%
    07:00 +3°C° 0 mm 1 mps 749 mmHg 94%
    08:00 +4°C° 0 mm 1 mps 749 mmHg 92%
    09:00 +4°C° 0 mm 1 mps 750 mmHg 91%
    10:00 +4°C° 0 mm 1 mps 750 mmHg 88%
    11:00 +4°C° 0 mm 2 mps 749 mmHg 85%
    12:00 +4°C° 0 mm 2 mps 749 mmHg 83%
    13:00 +5°C° 0 mm 2 mps 749 mmHg 79%
    14:00 +6°C° 0 mm 2 mps 749 mmHg 76%
    15:00 +6°C° 0 mm 2 mps 749 mmHg 73%
    16:00 +5°C° 0 mm 3 mps 749 mmHg 76%
    17:00 +5°C° 0 mm 3 mps 749 mmHg 78%
    18:00 +4°C° 0 mm 3 mps 749 mmHg 81%
    19:00 +4°C° 0 mm 4 mps 748 mmHg 80%
    20:00 +5°C° 0 mm 4 mps 748 mmHg 79%
    21:00 +5°C° 0 mm 4 mps 748 mmHg 78%
    22:00 +5°C° 0 mm 5 mps 747 mmHg 78%
    23:00 +5°C° 0 mm 5 mps 747 mmHg 77%

    Tomorrow, 21 November, Thursday

    Time Temperature Precipitation Wind Pressure Humidity
    00:00 +5°C° 0 mm 5 mps 746 mmHg 76%
    01:00 +5°C° 0 mm 6 mps 745 mmHg 75%
    02:00 +5°C° 0 mm 6 mps 744 mmHg 74%
    03:00 +5°C° 0 mm 6 mps 743 mmHg 73%
    04:00 +6°C° 1.2 mm 7 mps 743 mmHg 77%
    05:00 +6°C° 1.2 mm 7 mps 742 mmHg 81%
    06:00 +6°C° 1.2 mm 8 mps 741 mmHg 85%
    07:00 +6°C° 0.7 mm 8 mps 740 mmHg 86%
    08:00 +7°C° 0.7 mm 8 mps 739 mmHg 88%
    09:00 +7°C° 0.7 mm 8 mps 738 mmHg 89%
    10:00 +9°C° 0.4 mm 8 mps 737 mmHg 89%
    11:00 +10°C° 0.4 mm 9 mps 736 mmHg 89%
    12:00 +11°C° 0.4 mm 9 mps 735 mmHg 89%
    13:00 +10°C° 0.1 mm 9 mps 735 mmHg 85%
    14:00 +9°C° 0.1 mm 10 mps 735 mmHg 81%
    15:00 +9°C° 0.1 mm 10 mps 735 mmHg 77%
    16:00 +8°C° 0 mm 9 mps 737 mmHg 75%
    17:00 +9°C° 0 mm 8 mps 738 mmHg 73%
    18:00 +8°C° 0 mm 7 mps 740 mmHg 71%
    19:00 +6°C° 0 mm 7 mps 741 mmHg 71%
    20:00 +5°C° 0 mm 7 mps 742 mmHg 71%
    21:00 +4°C° 0 mm 6 mps 743 mmHg 71%
    22:00 +4°C° 0 mm 6 mps 743 mmHg 70%
    23:00 +3°C° 0 mm 6 mps 744 mmHg 69%

    Day after tomorrow, 22 November, Friday

    Time Temperature Precipitation Wind Pressure Humidity
    00:00 +2°C° 0 mm 6 mps 744 mmHg 68%
    01:00 +1°C° 0 mm 6 mps 745 mmHg 67%
    02:00 +1°C° 0 mm 6 mps 745 mmHg 67%
    03:00 0°C° 0 mm 5 mps 746 mmHg 67%
    04:00 0°C° 0 mm 5 mps 746 mmHg 67%
    05:00 -1°C° 0 mm 4 mps 747 mmHg 66%
    06:00 -2°C° 0 mm 4 mps 747 mmHg 66%
    07:00 -2°C° 0 mm 4 mps 747 mmHg 64%
    08:00 -1°C° 0 mm 3 mps 748 mmHg 62%
    09:00 -1°C° 0 mm 3 mps 748 mmHg 60%
    10:00 0°C° 0 mm 3 mps 748 mmHg 53%
    11:00 +2°C° 0 mm 2 mps 748 mmHg 47%
    12:00 +3°C° 0 mm 2 mps 748 mmHg 41%
    13:00 +4°C° 0 mm 2 mps 748 mmHg 41%
    14:00 +5°C° 0 mm 1 mps 747 mmHg 41%
    15:00 +5°C° 0 mm 1 mps 747 mmHg 41%
    16:00 +4°C° 0 mm 1 mps 747 mmHg 45%
    17:00 +4°C° 0 mm 1 mps 747 mmHg 49%
    18:00 +3°C° 0 mm 1 mps 747 mmHg 53%
    19:00 +3°C° 0 mm 1 mps 747 mmHg 54%
    20:00 +3°C° 0 mm 1 mps 747 mmHg 56%
    21:00 +2°C° 0 mm 1 mps 747 mmHg 58%
    22:00 +2°C° 0 mm 1 mps 746 mmHg 58%
    23:00 +2°C° 0 mm 1 mps 746 mmHg 58%

    23 November, Saturday

    Time Temperature Precipitation Wind Pressure Humidity
    00:00 +2°C° 0 mm 1 mps 746 mmHg 58%
    01:00 +2°C° 0 mm 1 mps 745 mmHg 57%
    02:00 +2°C° 0 mm 1 mps 745 mmHg 57%
    03:00 +2°C° 0 mm 1 mps 744 mmHg 56%
    04:00 +2°C° 0 mm 1 mps 744 mmHg 56%
    05:00 +2°C° 0 mm 1 mps 744 mmHg 56%
    06:00 +2°C° 0 mm 1 mps 743 mmHg 56%
    07:00 +3°C° 0 mm 1 mps 743 mmHg 55%
    08:00 +3°C° 0 mm 1 mps 743 mmHg 54%
    09:00 +2°C° 0 mm 2 mps 743 mmHg 53%
    10:00 +4°C° 0 mm 1 mps 742 mmHg 51%
    11:00 +5°C° 0 mm 1 mps 741 mmHg 48%
    12:00 +6°C° 0 mm 1 mps 740 mmHg 45%
    13:00 +6°C° 0 mm 1 mps 740 mmHg 45%
    14:00 +5°C° 0 mm 0 mps 739 mmHg 45%
    15:00 +5°C° 0 mm 0 mps 739 mmHg 44%
    16:00 +5°C° 0 mm 0 mps 739 mmHg 47%
    17:00 +6°C° 0 mm 1 mps 739 mmHg 50%
    18:00 +5°C° 0 mm 1 mps 738 mmHg 53%
    19:00 +5°C° 0 mm 1 mps 739 mmHg 54%
    20:00 +5°C° 0 mm 1 mps 739 mmHg 54%
    21:00 +4°C° 0 mm 2 mps 739 mmHg 55%
    22:00 +3°C° 0 mm 2 mps 739 mmHg 55%
    23:00 +3°C° 0 mm 2 mps 739 mmHg 56%

    24 November, Sunday

    Time Temperature Precipitation Wind Pressure Humidity
    00:00 +2°C° 0 mm 2 mps 738 mmHg 56%
    01:00 +2°C° 0 mm 2 mps 738 mmHg 57%
    02:00 +2°C° 0 mm 2 mps 738 mmHg 59%
    03:00 +1°C° 0 mm 2 mps 738 mmHg 60%
    04:00 +1°C° 0 mm 2 mps 738 mmHg 63%
    05:00 0°C° 0 mm 3 mps 739 mmHg 67%
    06:00 0°C° 0 mm 3 mps 739 mmHg 70%
    07:00 0°C° 0 mm 3 mps 739 mmHg 71%
    08:00 +1°C° 0 mm 3 mps 740 mmHg 72%
    09:00 +1°C° 0 mm 3 mps 740 mmHg 73%
    10:00 +2°C° 0 mm 3 mps 740 mmHg 70%
    11:00 +3°C° 0 mm 4 mps 740 mmHg 66%
    12:00 +4°C° 0 mm 4 mps 740 mmHg 63%
    13:00 +4°C° 0 mm 4 mps 740 mmHg 64%
    14:00 +4°C° 0 mm 4 mps 740 mmHg 65%
    15:00 +4°C° 0 mm 4 mps 740 mmHg 65%
    16:00 +4°C° 0 mm 4 mps 740 mmHg 67%
    17:00 +3°C° 0 mm 4 mps 740 mmHg 70%
    18:00 +3°C° 0 mm 4 mps 741 mmHg 72%
    19:00 +2°C° 0 mm 3 mps 741 mmHg 73%
    20:00 +2°C° 0 mm 3 mps 741 mmHg 74%
    21:00 +2°C° 0 mm 3 mps 741 mmHg 76%
    22:00 +1°C° 0 mm 3 mps 741 mmHg 77%
    23:00 +1°C° 0 mm 3 mps 741 mmHg 78%

    25 November, Monday

    Time Temperature Precipitation Wind Pressure Humidity
    00:00 +1°C° 0 mm 3 mps 741 mmHg 79%
    01:00 0°C° 0 mm 3 mps 740 mmHg 79%
    02:00 -1°C° 0 mm 4 mps 740 mmHg 78%
    03:00 -1°C° 0 mm 4 mps 740 mmHg 78%
    04:00 -1°C° 0 mm 4 mps 740 mmHg 77%
    05:00 -1°C° 0 mm 4 mps 740 mmHg 76%
    06:00 -1°C° 0 mm 5 mps 739 mmHg 75%
    07:00 0°C° 0 mm 5 mps 739 mmHg 73%
    08:00 -1°C° 0 mm 6 mps 740 mmHg 71%
    09:00 -1°C° 0 mm 6 mps 740 mmHg 69%
    10:00 +1°C° 0 mm 6 mps 739 mmHg 66%
    11:00 +2°C° 0 mm 6 mps 739 mmHg 64%
    12:00 +3°C° 0 mm 6 mps 739 mmHg 61%
    13:00 +5°C° 0 mm 5 mps 738 mmHg 61%
    14:00 +5°C° 0 mm 5 mps 738 mmHg 61%
    15:00 +6°C° 0 mm 5 mps 737 mmHg 61%
    16:00 +5°C° 0 mm 5 mps 738 mmHg 63%
    17:00 +5°C° 0 mm 5 mps 738 mmHg 65%
    18:00 +3°C° 0 mm 5 mps 738 mmHg 67%
    19:00 +3°C° 0 mm 5 mps 738 mmHg 69%
    20:00 +3°C° 0 mm 5 mps 738 mmHg 70%
    21:00 +3°C° 0 mm 6 mps 739 mmHg 71%
    22:00 +3°C° 0 mm 5 mps 739 mmHg 73%
    23:00 +3°C° 0 mm 5 mps 739 mmHg 75%
    Show more